Volver al catálogo

STARLINK-30894

ActivoComunicacionesVLEO
NORAD 58375·PAYLOAD·🇺🇸 United States

Lanzado Nov 20, 2023 desde Vandenberg Space Force Base

Loading…

Próximos Pases (próximas 24 horas)

TLE

ActualizadoSource: CelesTrak SupGP

Época: Sep 15, 2026, 02:11 UTC

1 58375C 23178B   26258.09145833 -.00083056  00000+0 -24535-2 0  2587
2 58375  53.1575 197.3319 0001376  92.5878 353.2392 15.34437211    14

Sigue STARLINK-30894 en tiempo real con AllMySat

Download on the App Store